Weather Roundup
Issued by NWS Springfield, MO

Home | Current Version | Previous Version | Text Only | Print | Product List | Glossary On
Versions: 1 2 3 4 5 6 7 8 9 10 11 12 13 14 15 16 17 18 19 20 21 22 23 24 25 26 27 28 29 30 31 32 33 34 35 36 37 38 39 40 41 42 43 44 45 46 47 48 49 50
000
NZUS99 KSGF 261757
HRRSGF

HOURLY WEATHER
NATIONAL WEATHER SERVICE SPRINGFIELD MO
100 PM CDT FRI MAY 26 2017

......SGF CWA......

CITY           SKY/WX    TMP DP  RH WIND       PRES   REMARKS
SPRINGFIELD    CLOUDY    76  66  71 S10       29.76S
6HR MIN TEMP:  67; 6HR MAX TEMP:  77;

JOPLIN         CLOUDY    80  69  69 SW7       29.76R
6HR MIN TEMP:  66; 6HR MAX TEMP:  81;

WEST PLAINS    CLOUDY    75  65  70 S12G20    29.80S
6HR MIN TEMP:  64; 6HR MAX TEMP:  76;

ROLLA          MOSUNNY   79  69  71 VRB7G20   29.74S
6HR MIN TEMP:  61; 6HR MAX TEMP:  79; 6HR PCP: TRACE;


......SURROUNDING SGF CWA......

CITY           SKY/WX    TMP DP  RH WIND       PRES   REMARKS
CHANUTE        MOSUNNY   83  66  56 VRB7      29.75R
PARSONS        PTSUNNY   83  66  56 N5        29.75R
COFFEYVILLE    CLOUDY    82  69  64 N3        29.74R
EMPORIA        SUNNY     80  63  55 N9        29.76R
ROGERS AR      CLOUDY    79  66  65 SW15      29.79R
HARRISON AR    CLOUDY    79  66  64 S9        29.79S

......KANSAS AND MISSOURI......

CITY           SKY/WX    TMP DP  RH WIND       PRES   REMARKS
KANSAS CTY INT PTSUNNY   78  65  63 NW6       29.75R
SEDALIA        CLOUDY    78  69  73 VRB5      29.75S
ST JOSEPH      PTSUNNY   80  64  58 NE5       29.75R
ST LOUIS       MOSUNNY   85  65  51 SE6       29.73F
WICHITA        SUNNY     82  62  50 NE13G21   29.77R
TOPEKA         MOSUNNY   82  68  62 N9        29.74S
OLATHE         PTSUNNY   78  63  59 VRB3      29.76R

......TENNESSEE......

CITY           SKY/WX    TMP DP  RH WIND       PRES   REMARKS
MEMPHIS        NOT AVBL
NASHVILLE      MOSUNNY   83  62  49 S13       29.94F

......ARKANSAS.......

CITY           SKY/WX    TMP DP  RH WIND       PRES   REMARKS
FAYETTEVILLE   CLOUDY    80  69  69 S13       29.78R
FT SMITH       CLOUDY    84  67  56 SW12      29.76R
LITTLE ROCK    CLOUDY    74  69  85 S15       29.87S

......OKLAHOMA.......

CITY           SKY/WX    TMP DP  RH WIND       PRES   REMARKS
TULSA          MOSUNNY   87  68  52 CALM      29.70S HX  90
PONCA CITY     SUNNY     86  64  47 N12       29.75R
MCALESTER      MOSUNNY   90  73  57 SW17G24   29.74R HX  98
OKLAHOMA CITY  MOSUNNY   85  64  49 N16       29.75S

......IOWA............

CITY           SKY/WX    TMP DP  RH WIND       PRES   REMARKS
DES MOINES     NOT AVBL
QUAD CITIES    TSTM      62  59  90 E8        29.76R FOG

......ILLINOIS........

CITY           SKY/WX    TMP DP  RH WIND       PRES   REMARKS
QUINCY         NOT AVBL
CHICAGO        CLOUDY    67  53  61 E13       29.82R




USA.gov is the U.S. government's official web portal to all federal, state and local government web resources and services.